DW9433 Weather Reports


time (UTC)temp
C
wind
direction
speed
KPH
gust
KPH
rain 1hr
cm
rain 24hr
cm
rain mn
cm
humidity
%
barometer
mb
20260906131518 27 142 0.0 6.4 0.00 0.00 0.00 79 1012.4
20260906130030 26 42 0.0 1.6 0.00 0.00 0.00 83 1012.5
20260906124517 25 45 0.0 0.0 0.00 0.00 0.00 87 1012.4
20260906123015 25 5 0.0 0.0 0.00 0.00 0.00 90 1012.4
20260906121510 24 5 0.0 0.0 0.00 0.00 0.00 92 1012.3
20260906120008 24 14 0.0 0.0 0.00 0.00 0.00 92 1012.0
20260906114508 24 14 0.0 0.0 0.00 0.00 0.00 92 1011.8
20260906113005 24 14 0.0 0.0 0.00 0.00 0.00 92 1011.4
20260906111503 24 14 0.0 0.0 0.00 0.00 0.00 92 1011.2
20260906110006 24 14 0.0 0.0 0.00 0.00 0.00 92 1011.1
20260906104600 24 14 0.0 0.0 0.00 0.00 0.00 92 1010.8
20260906103100 25 14 0.0 0.0 0.00 0.00 0.00 92 1010.7
20260906101559 25 14 0.0 0.0 0.00 0.00 0.00 92 1010.7
20260906100058 24 14 0.0 0.0 0.00 0.00 0.00 92 1010.7
20260906094558 25 14 0.0 0.0 0.00 0.00 0.00 91 1010.7
20260906093114 25 14 0.0 0.0 0.00 0.00 0.00 91 1010.6
20260906091557 25 14 0.0 0.0 0.00 0.00 0.00 91 1010.5
20260906090058 25 14 0.0 0.0 0.00 0.00 0.00 91 1010.5
20260906084553 25 14 0.0 0.0 0.00 0.00 0.00 90 1010.6
20260906083052 25 14 0.0 0.0 0.00 0.00 0.00 90 1010.5
20260906081553 25 14 0.0 0.0 0.00 0.00 0.00 89 1010.5
20260906080049 25 14 0.0 0.0 0.00 0.00 0.00 89 1010.6
20260906074549 25 14 0.0 0.0 0.00 0.00 0.00 88 1010.5
20260906073049 25 14 0.0 0.0 0.00 0.00 0.00 88 1010.5
20260906071557 25 14 0.0 0.0 0.00 0.00 0.00 89 1010.5
20260906070047 25 14 0.0 0.0 0.00 0.00 0.00 89 1010.6
20260906064546 25 14 0.0 0.0 0.00 0.00 0.00 89 1010.4
20260906063044 25 14 0.0 0.0 0.00 0.00 0.00 88 1010.6
20260906061542 25 14 0.0 0.0 0.00 0.00 0.00 88 1010.6
20260906060041 26 14 0.0 0.0 0.00 0.00 0.00 88 1010.7
20260906054544 26 14 0.0 0.0 0.00 0.00 0.00 88 1010.8
20260906053039 26 14 0.0 0.0 0.00 0.00 0.00 88 1010.8
20260906051545 26 14 0.0 0.0 0.00 0.00 0.00 87 1010.8
20260906050056 26 14 0.0 0.0 0.00 0.00 0.00 87 1010.7
20260906044533 26 14 0.0 0.0 0.00 0.00 0.00 86 1010.7
20260906043033 26 14 0.0 0.0 0.00 0.00 0.00 86 1010.5
20260906041533 26 14 0.0 0.0 0.00 0.00 0.00 85 1010.6
20260906040036 27 14 0.0 0.0 0.00 0.00 0.00 85 1010.6
20260906034540 27 14 0.0 0.0 0.00 0.00 0.00 84 1010.6
20260906033032 27 14 0.0 0.0 0.00 0.00 0.00 83 1010.7
20260906031539 27 14 0.0 0.0 0.00 0.00 0.00 83 1010.5
20260906030032 27 14 0.0 0.0 0.00 0.00 0.00 82 1010.5
20260906024531 28 14 0.0 0.0 0.00 0.00 0.00 81 1010.6
20260906023035 28 14 0.0 0.0 0.00 0.00 0.00 79 1010.4
20260906021529 28 14 0.0 0.0 0.00 0.00 0.00 79 1010.3
20260906020030 28 14 0.0 0.0 0.00 0.00 0.00 78 1010.2
20260906014533 29 14 0.0 0.0 0.00 0.00 0.00 76 1010.0
20260906013028 29 14 0.0 0.0 0.00 0.00 0.00 76 1009.8
20260906011527 30 14 0.0 0.0 0.00 0.00 0.00 74 1009.6
20260906010028 31 14 0.0 0.0 0.00 0.00 0.00 71 1009.4
20260906004527 31 14 0.0 0.0 0.00 0.00 0.00 67 1009.4
20260906003027 32 14 0.0 0.0 0.00 0.00 0.00 65 1009.4
20260906001525 33 14 0.0 0.0 0.00 0.00 0.00 63 1009.4
20260906000029 34 14 0.0 0.0 0.00 0.00 0.00 60 1009.4
20260905234524 35 14 0.0 0.0 0.00 0.00 0.00 55 1009.4
20260905233027 35 14 0.0 0.0 0.00 0.00 0.00 52 1009.4
20260905231522 36 14 0.0 1.6 0.00 0.00 0.00 50 1009.5
20260905230022 36 17 0.0 1.6 0.00 0.00 0.00 49 1009.6
20260905224522 36 5 0.0 3.2 0.00 0.00 0.00 51 1009.5
20260905223022 36 310 0.0 0.0 0.00 0.00 0.00 51 1009.5
20260905221520 36 29 0.0 8.0 0.00 0.00 0.00 52 1009.6
20260905220024 36 32 0.0 3.2 0.00 0.00 0.00 52 1009.6
20260905214520 36 65 0.0 11.3 0.00 0.00 0.00 50 1009.7
20260905213022 37 35 0.0 8.0 0.00 0.00 0.00 47 1009.5
20260905211518 37 34 0.0 1.6 0.00 0.00 0.00 44 1009.7
20260905210016 38 11 0.0 8.0 0.00 0.00 0.00 44 1009.9
20260905204516 38 5 0.0 3.2 0.00 0.00 0.00 46 1010.0
20260905203015 38 350 1.6 12.9 0.00 0.00 0.00 46 1010.2
20260905201511 38 21 1.6 6.4 0.00 0.00 0.00 46 1010.5
20260905200009 38 16 0.0 6.4 0.00 0.00 0.00 45 1010.5
20260905194508 38 5 0.0 9.7 0.00 0.00 0.00 46 1010.8
20260905193004 37 46 0.0 1.6 0.00 0.00 0.00 46 1011.1
20260905191502 37 20 0.0 0.0 0.00 0.00 0.00 46 1011.3
20260905190100 38 360 0.0 4.8 0.00 0.00 0.00 46 1011.4
20260905184609 37 5 0.0 8.0 0.00 0.00 0.00 47 1011.6
20260905183055 37 19 1.6 9.7 0.00 0.00 0.00 49 1011.7
20260905181553 37 18 0.0 3.2 0.00 0.00 0.00 49 1011.8
20260905180053 37 49 0.0 4.8 0.00 0.00 0.00 50 1012.0
20260905174557 37 32 1.6 8.0 0.00 0.00 0.00 50 1012.2
20260905173102 37 32 0.0 3.2 0.00 0.00 0.00 49 1012.2
20260905171548 37 50 0.0 1.6 0.00 0.00 0.00 52 1012.3
20260905170048 36 42 0.0 4.8 0.00 0.00 0.00 55 1012.6
20260905164544 36 198 0.0 0.0 0.00 0.00 0.00 55 1012.7
20260905163050 36 57 0.0 4.8 0.00 0.00 0.00 56 1012.9
20260905161537 35 91 0.0 8.0 0.00 0.00 0.00 58 1013.0
20260905160047 35 37 0.0 1.6 0.00 0.00 0.00 62 1013.2
20260905154531 34 34 0.0 1.6 0.00 0.00 0.00 63 1013.2
20260905153028 33 42 0.0 1.6 0.00 0.00 0.00 65 1013.2
20260905151526 33 36 0.0 1.6 0.00 0.00 0.00 65 1013.2
20260905150028 33 298 0.0 0.0 0.00 0.00 0.00 66 1013.4
20260905144539 32 31 0.0 1.6 0.00 0.00 0.00 67 1013.3
20260905143023 32 181 0.0 0.0 0.00 0.00 0.00 67 1013.2
20260905141520 31 183 0.0 0.0 0.00 0.00 0.00 69 1013.2
20260905140010 30 168 0.0 1.6 0.00 0.00 0.00 72 1013.1
20260905134512 29 173 0.0 0.0 0.00 0.00 0.00 75 1013.1
20260905133001 28 173 0.0 0.0 0.00 0.00 0.00 81 1013.1